SCP
0 0 0 0 0 0 0 0 0 0 0 0 0 0 0 0 0 0 0 0 0 0 0 0 0 0 0 0 0 0 0 0 0 0 0 0 0 0 0 0 0 0 0
0 0 0 0 0 0 0 0 0 0 0 0 0 0 0 0 0 0 0 0 0 0 0 0 0 0 0 0 0 0 0 0 0 0 0 0 0 0 0 0 0 0 0
0 0 0 0 0 0 0 0 0 0 0 0 0 0 0 0 0 0 0 0 0 0 0 0 0 0 0 0 0 0 0 0 0 0 0 0 0 0 0 0 0 0 0
0 0 0 0 0 0 0 0 0 0 0 0 0 0 0 0 0 0 0 0 0 0 0 0 0 0 0 0 0 0 0 0 0 0 0 0 0 0 0 0 0 0 0
0 0 0 0 0 0 0 0 0 0 0 0 0 0 0 0 0 0 0 0 0 0 0 0 0 0 0 0 0 0 0 0 0 0 0 0 0 0 0 0 0 0 0
0 0 0 0 0 0 0 0 0 0 0 0 0 0 0 0 0 0 0 0 0 0 0 0 0 0 0 0 0 0 0 0 0 0 0 0 0 0 0 0 0 0 0
0 0 0 0 0 0 0 0 0 0 0 0 0 0 0 0 0 0 0 0 0 0 0 0 0 0 0 0 0 0 0 0 0 0 0 0 0 0 0 0 0 0 0
0 0 0 0 0 0 0 0 0 0 0 0 0 0 0 0 0 0 0 0 0 0 0 0 0 0 0 0 0 0 0 0 0 0 0 0 0 0 0 0 0 0 0
0 0 0 0 0 0 0 0 0 0 0 0 0 0 0 0 0 0 0 0 0 0 0 0 0 0 0 0 0 0 0 0 0 0 0 0 0 0 0 0 0 0 0
0 0 0 0 0 0 0 0 0 0 0 0 0 0 0 0 0 0 0 0 0 0 0 0 0 0 0 0 0 0 0 0 0 0 0 0 0 0 0 0 0 0 0
0 0 0 0 0 0 0 0 0 0 0 0 0 0 0 0 0 0 0 0 0 0 0 0 0 0 0 0 0 0 0 0 0 0 0 0 0 0 0 0 0 0 0
0 0 0 0 0 0 0 0 0 0 0 0 0 0 0 0 0 0 0 0 0 0 0 0 0 0 0 0 0 0 0 0 0 0 0 0 0 0 0 0 0 0 0
0 0 0 0 0 0 0 0 0 0 0 0 0 0 0 0 0 0 0 0 0 0 0 0 0 0 0 0 0 0 0 0 0 0 0 0 0 0 0 0 0 0 0
0 0 0 0 0 0 0 0 0 0 0 0 0 0 0 0 0 0 0 0 0 0 0 0 0 0 0 0 0 0 0 0 0 0 0 0 0 0 0 0 0 0 0
0 0 0 0 0 0 0 0 0 0 0 0 0 0 0 0 0 0 0 0 0 0 0 0 0 0 0 0 0 0 0 0 0 0 0 0 0 0 0 0 0 0 0
0 0 0 0 0 0 0 0 0 0 0 0 0 0 0 0 0 0 0 0 0 0 0 0 0 0 0 0 0 0 0 0 0 0 0 0 0 0 0 0 0 0 0
0 0 0 0 0 0 0 0 0 0 0 0 0 0 0 0 0 0 0 0 0 0 0 0 0 0 0 0 0 0 0 0 0 0 0 0 0 0 0 0 0 0 0
0 0 0 0 0 0 0 0 0 0 0 0 0 0 0 0 0 0 0 0 0 0 0 0 0 0 0 0 0 0 0 0 0 0 0 0 0 0 0 0 0 0 0
1 0 0 0 0 0 0 0 0 0 0 0 0 0 0 0 0 0 0 0 0 0 0 0 0 0 0 0 0 0 0 0 0 0 0 0 0 0 0 0 0 0 0
1 1 1 1 0 0 0 0 0 0 0 0 0 0 0 0 0 0 0 0 0 0 0 0 0 0 0 0 0 0 0 0 0 0 0 0 0 0 0 0 0 0 0
1 1 1 1 1 0 0 0 0 0 0 0 0 0 0 0 0 0 0 0 0 0 0 0 0 0 0 0 0 0 0 0 0 0 0 0 0 0 0 0 0 0 0
1 1 1 1 1 0 0 0 0 0 0 0 0 0 0 0 0 0 0 0 0 0 0 0 0 0 0 0 0 0 0 0 0 0 0 0 0 0 0 0 0 0 0
1 1 1 1 1 0 0 0 0 0 0 0 0 0 0 0 0 0 0 0 0 0 0 0 0 0 0 0 0 0 0 0 0 0 0 0 0 0 0 0 0 0 0
1 1 1 1 1 0 0 0 0 0 0 0 0 0 0 0 0 0 0 0 0 0 0 0 0 0 0 0 0 0 0 0 0 0 0 0 0 0 0 0 0 0 0
1 1 1 1 1 0 0 0 0 0 0 0 0 0 0 0 0 0 0 0 0 0 0 0 0 0 0 0 0 0 0 0 0 0 0 0 0 0 0 0 0 0 0
1 0 0 0 0 0 0 0 0 0 0 0 0 0 0 0 0 0 0 0 0 0 0 0 0 0 0 0 0 0 0 0 0 0 0 0 0 0 0 0 0 0 0
Wind_Speed
7 6 4 4 4 4 4 3 3 3 3 3 3 4 4 4 4 2 2 5 6 6 6 6 6 6 6 6 6 6 6 7 7 7 7 8 8 9 9 10 10 11 11
8 7 6 5 4 4 4 4 4 4 3 3 3 4 5 4 4 3 2 2 4 5 5 5 5 5 5 5 5 5 5 5 5 6 6 7 8 8 9 9 10 10 11
9 8 7 5 5 5 5 4 4 3 3 3 3 4 4 4 4 4 3 2 1 2 3 4 4 4 3 3 3 3 3 4 4 5 5 6 7 7 8 9 9 10 10
11 8 7 6 6 5 4 4 4 3 3 3 3 2 3 3 4 4 3 2 1 1 1 3 3 3 2 2 1 1 1 2 3 4 5 5 6 7 8 9 9 10 11
12 9 7 6 7 5 4 5 3 3 3 3 3 2 2 3 3 3 3 3 3 3 1 3 3 3 2 2 1 1 1 2 2 3 4 5 6 7 8 9 10 11 11
12 10 7 8 7 6 5 4 4 3 3 4 3 2 1 1 2 3 4 3 3 4 3 2 2 2 4 4 3 3 3 3 3 4 5 6 7 8 9 10 10 11 12
12 11 8 8 8 7 7 6 4 4 3 3 3 2 2 1 2 2 3 3 4 4 4 4 3 2 2 5 5 5 5 5 5 5 6 7 8 9 10 10 11 12 13
13 11 10 9 8 7 7 7 5 4 3 4 4 3 0 2 2 2 2 3 4 3 4 5 4 4 3 2 4 6 6 6 6 6 7 8 9 10 10 11 12 13 13
13 11 12 10 9 9 8 8 7 7 5 3 3 5 4 4 2 2 3 3 4 3 4 4 5 5 5 3 3 6 7 8 8 8 8 9 10 11 11 12 13 13 14
13 12 12 11 11 9 8 9 8 6 7 5 3 2 3 4 3 1 2 2 3 4 5 4 4 5 5 4 5 8 9 9 9 9 10 10 11 11 12 12 13 14 15
12 13 13 12 11 9 10 10 8 7 6 6 5 3 2 1 2 3 3 3 2 4 4 5 4 4 5 5 4 7 10 10 10 10 10 11 12 12 13 14 14 15 15
10 13 13 13 12 10 10 10 10 10 8 7 5 5 4 4 4 4 3 3 3 3 3 3 4 4 4 4 6 10 11 10 10 10 10 11 12 13 14 14 14 15 16
11 15 14 13 11 10 10 10 10 9 9 9 8 6 5 4 4 4 3 2 3 3 2 2 4 4 4 4 5 10 10 11 10 11 11 11 12 13 13 14 15 16 16
12 11 13 12 11 11 11 10 9 9 9 9 10 8 5 5 4 4 5 4 2 2 2 4 2 4 4 4 6 8 6 11 11 11 11 11 11 12 13 14 15 16 16
8 10 12 11 11 11 12 11 9 10 9 10 9 9 7 5 5 4 4 4 5 3 4 4 3 3 3 3 6 5 5 10 11 11 10 11 11 12 13 14 15 16 16
10 11 12 12 12 11 12 11 8 8 10 9 7 9 8 5 5 5 4 4 4 5 4 3 4 3 2 3 6 4 5 9 10 10 11 11 11 12 13 14 15 15 16
13 13 13 13 13 13 12 12 11 11 12 10 9 10 10 8 6 5 5 4 4 4 5 4 2 2 2 3 2 2 3 3 4 10 11 11 11 12 13 14 14 15 16
14 14 13 13 13 13 13 14 13 12 12 12 11 10 10 7 8 6 5 6 5 5 5 5 3 2 3 2 2 2 2 2 3 8 10 11 11 12 13 13 14 14 15
13 13 14 14 14 14 13 13 12 12 12 11 11 11 10 9 9 7 6 6 5 4 4 4 3 2 1 1 1 2 2 2 3 5 8 10 11 12 12 13 13 13 14
14 14 14 14 13 13 13 12 11 11 10 10 10 10 10 11 11 9 7 7 5 4 3 3 3 2 2 1 1 2 3 2 3 3 5 6 9 10 11 12 13 13 14
13 13 12 12 11 11 11 12 11 10 10 9 9 9 9 10 11 9 7 7 6 5 4 3 3 2 2 2 2 2 3 2 2 2 2 3 4 3 5 9 11 12 13
11 12 13 12 12 10 14 16 13 10 10 10 9 8 8 9 11 12 11 11 10 8 7 5 4 4 4 4 2 2 1 0 3 1 1 3 2 3 3 3 9 12 13
11 11 12 12 12 13 16 17 16 11 9 9 9 8 6 6 9 7 8 9 9 10 9 7 6 6 5 5 3 2 2 2 3 2 1 3 2 3 3 5 10 11 13
10 10 11 11 11 11 16 16 16 11 8 8 8 8 8 7 7 8 6 5 4 4 5 5 5 5 4 3 4 3 2 1 1 1 0 2 2 3 4 4 9 11 13
8 8 9 10 10 10 15 17 15 8 7 7 6 7 8 7 10 11 8 6 4 3 3 5 4 3 3 3 4 3 2 1 2 2 0 1 2 4 4 3 5 11 13
8 7 7 8 10 10 14 17 16 8 7 6 5 6 8 9 10 12 8 7 7 5 4 3 2 2 2 2 3 2 3 1 1 2 1 1 1 3 4 3 3 4 6
Wind_Direction
153 149 150 150 148 146 150 150 153 157 153 149 144 138 136 136 134 123 108 113 117 120 122 118 113 106 101 92 84 75 66 57 51 47 42 37 32 26 21 18 16 11 8
159 158 158 160 162 163 163 162 166 163 161 149 146 144 144 142 140 135 121 110 119 127 132 129 120 113 107 100 91 79 66 55 46 40 34 28 23 18 13 10 8 4 1
164 163 164 169 174 170 163 155 155 149 145 140 143 145 145 150 149 149 141 123 109 120 136 144 139 130 120 110 97 84 65 48 36 28 23 17 11 6 1 360 358 355 352
167 166 168 176 175 167 161 156 153 145 144 141 144 151 148 149 156 161 154 152 142 126 148 160 163 160 152 137 117 89 60 34 18 10 5 0 356 352 350 350 348 346 343
171 170 172 174 170 166 166 165 153 148 148 148 148 146 155 162 169 166 171 177 177 172 175 181 180 187 194 204 221 252 308 338 341 344 343 341 340 339 340 340 339 337 335
174 171 172 173 169 166 168 163 153 148 148 150 135 117 160 188 179 181 187 185 189 189 186 185 185 214 218 225 242 264 278 296 308 317 322 324 327 329 330 331 331 330 329
176 174 173 174 174 176 174 163 149 152 147 134 105 64 355 328 230 214 197 188 199 201 195 197 197 209 236 234 244 262 275 284 292 302 311 315 317 320 322 324 324 323 324
179 180 175 178 177 172 171 170 154 151 158 156 136 124 271 313 286 237 215 208 207 201 207 209 204 207 215 222 248 252 267 279 286 294 301 307 310 314 316 318 318 319 319
182 182 180 178 179 179 183 181 172 163 168 186 164 151 163 215 258 288 241 226 215 211 217 213 213 213 212 210 229 246 253 268 280 290 297 302 306 310 312 314 315 315 316
184 183 181 181 183 185 184 185 182 171 162 177 194 185 162 156 162 250 293 258 232 226 223 219 216 216 210 208 219 232 245 258 271 284 293 298 303 306 309 312 315 316 317
188 187 185 186 188 190 189 187 183 183 177 174 175 166 155 140 144 157 238 274 270 244 226 221 217 217 214 211 217 233 243 254 266 277 286 293 299 304 308 310 313 314 315
191 193 191 191 192 192 191 191 189 189 191 183 182 175 167 169 182 172 196 228 246 262 241 228 222 222 218 215 223 231 239 249 261 271 281 289 295 301 304 308 311 313 314
197 199 195 195 194 192 190 188 192 194 193 192 193 196 193 191 166 162 169 202 235 269 282 255 231 222 221 215 226 232 239 247 257 266 276 285 291 296 301 305 309 311 313
201 193 195 197 194 190 191 191 196 197 197 201 203 199 200 202 181 171 169 165 207 275 280 263 259 226 224 216 228 226 238 246 255 264 272 281 288 294 299 304 308 310 312
191 187 193 195 194 192 193 191 201 202 200 204 205 203 205 201 195 194 179 170 176 221 253 249 249 245 226 221 228 221 229 249 258 265 272 279 287 293 297 301 305 308 310
187 186 193 196 195 195 194 194 198 198 202 206 200 202 208 202 200 196 194 192 188 195 231 239 232 244 236 236 233 226 232 251 260 268 274 281 289 293 296 300 305 308 310
190 192 194 196 197 198 197 199 203 198 204 206 201 204 210 199 199 200 196 193 197 189 225 252 235 232 222 240 253 238 238 243 264 271 275 282 290 295 300 303 306 309 311
194 195 193 196 199 200 200 203 205 202 204 207 205 204 208 199 204 200 198 203 204 199 206 239 246 231 229 232 241 251 258 259 258 271 278 288 294 298 304 307 309 309 312
192 192 192 197 199 200 201 204 204 204 206 207 203 204 203 197 205 203 200 205 207 201 201 215 239 230 239 241 254 271 277 272 272 275 283 288 292 299 306 309 311 314 315
191 192 194 196 197 196 198 200 201 202 204 204 201 202 201 201 205 202 202 205 198 195 194 205 226 231 232 234 205 250 276 270 278 284 283 289 295 302 309 313 315 317 318
192 190 190 192 192 192 196 195 196 198 198 199 199 201 201 200 202 200 197 197 190 196 194 204 220 217 222 217 230 218 247 287 289 271 292 291 295 296 307 313 316 318 321
186 185 189 190 190 194 192 190 190 193 194 195 196 197 196 197 199 198 197 192 188 193 200 203 213 219 231 223 218 211 215 265 283 274 273 285 284 286 297 297 311 319 322
183 186 188 188 192 193 186 185 187 187 191 195 195 193 190 192 191 196 196 192 195 197 195 195 206 219 219 214 191 201 210 218 243 268 292 280 293 285 294 304 312 319 324
183 187 188 188 189 189 182 180 180 185 187 191 192 191 188 186 184 180 178 186 194 201 201 199 205 214 212 196 181 186 194 213 280 306 324 274 292 291 303 299 305 319 326
178 183 182 183 185 185 179 176 172 179 183 186 183 183 181 183 179 173 172 176 177 189 164 164 167 158 142 140 130 114 101 71 284 275 263 278 297 305 295 284 299 316 323
172 171 174 181 182 182 177 175 171 174 176 176 170 176 179 178 174 172 176 176 184 191 159 141 135 110 101 109 123 144 165 179 253 269 254 279 289 323 309 290 291 302 311